Showing default

VINDLER 2.1, 68488

Orbit data source: Space-Track

VINDLER 2.1, 68488 is a payload satellite owned by Sierra Nevada (US) in SSO that was launched on Mon, 30 Mar 2026 UTC via an FALCON 9 launch vehicle from the Air Force Western Test Range (AFWTR). Payload-class satellites include a variety of spacecraft equipped with specific instruments for various scientific and technological missions. These include communications satellites like Starlink; space stations such as the ISS; scientific satellites like the Hubble; Earth observation satellites from companies like Planet Labs, Umbra, and HawkEye 360; GPS; miniature CubeSats for education and research; and military/defense satellites.

Loading next visibility...
Identifier
68488, 2026-067CA
Orbit
SSO
Country
Flag of USUS
Related business
Manufacturer
Muon Space
Mission
Operational Commercial Sigint
Bus & Motor
MUON HALO, Unknown motor
Mass
~130 kg wet, ~130 kg dry
Launch date (UTC)
2026-03-30 (6 months ago)
Launch vehicle
FALCON 9
Launch site
Air Force Western Test Range (AFWTR)
Object type
Payload
Rocket body
Debris
Shape & HBR
Box + 2 Pan, 2.5 m
Radar Cross Section
2.173 m², Large (>1 m²)

Expand to show TLE details & history
Last TLE update: 1 day ago

TLE from 1 day ago
0 VINDLER 2.1
1 68488U 26067CA  26262.33019029  .00000806  00000-0  84513-4 0  9999
2 68488  97.7662 219.1818 0002700  84.5894 275.5633 14.92242071 25763
Epoch: 2026-09-19T07:55Z
TLE epoch observation values (Epoch: 2026-09-19T07:55:28.441Z)
Latitude
Longitude
102.07302°
Altitude
593.806 km
Speed
7.563 km/s
True Right ascension
14h 36m 43s
True Declination
0° 00' 00"
Sunlit
Object was in daylight at epoch
Visualization orbit readout
Latitude
Unknown
Longitude
Unknown
Altitude
Unknown
Speed
Unknown
Apparent Right ascension
Unknown
Apparent Declination
Unknown
Sunlit
N/A
Visualization observer readout
Local Sidereal Time
08:43:59
Azimuth
Unknown
Elevation
Unknown
Doppler factor
Unknown
Orbital elements
Apogee altitude
589.846 km
Perigee altitude
586.084 km
Semi-major axis
6,966.102 km
Eccentricity
0.00027
Inclination
97.7662°
RAAN
219.1818°
Arg. of periapsis
84.5894°
True anomaly
275.53251°
Mean anomaly
275.5633°
Eccentric anomaly
275.5479°
Mean motion
3.733 °/min
Orbital period
96.44 mins
BSTAR
0.000084513
Loading maneuver chart data...
Computing Atmospheric mass density...
Loading historical data...
Loading historical data...
Loading historical data...
Loading historical data...
Loading historical data...
Loading historical data...
Loading historical data...

Documentation

Showing up to 5 results
|